Volver al catálogo

STARLINK-35305

ActivoComunicacionesVLEO
NORAD 66561·PAYLOAD·🇺🇸 United States

Lanzado Nov 21, 2025 desde Cape Canaveral Space Force Station

Loading…

Próximos Pases (próximas 24 horas)

TLE

ActualizadoSource: CelesTrak SupGP

Época: Sep 14, 2026, 22:40 UTC

1 66561C 25268E   26257.94493056 -.00012884  00000+0 -46691-3 0  2579
2 66561  43.0039 358.2010 0001444 275.8871 113.7764 15.27567724    11

Sigue STARLINK-35305 en tiempo real con AllMySat

Download on the App Store